Wind_Speed
49 49 48 47 44 43 42 40 39 38 38 38 38 42 46 48 49 51 51 49 46 44 42 43 42 38 33 34 39 47 50 48 47 47 45 44 47 50 51 50 49 49 49 49 47 45 44 44 45 44 44 45 46 45 42 39 38 38 38 38 37 37 37 37 39 41 41 41 40 40 40 40 40 40 39 37 37 36 36 36 36 36 36 35 34
48 46 46 44 40 39 40 38 35 35 35 35 36 37 41 44 46 48 50 51 48 45 43 43 42 39 33 30 32 39 47 51 51 49 45 43 44 46 48 48 48 50 49 47 45 43 43 44 43 42 41 40 39 39 39 40 41 40 39 38 37 38 38 39 41 42 42 41 40 39 39 39 39 39 39 38 37 37 38 38 37 37 37 36 36
46 44 43 41 38 37 38 36 33 32 33 33 34 35 37 40 43 44 47 50 49 46 43 42 42 40 34 31 30 32 38 45 49 49 46 44 43 44 45 43 45 49 49 46 45 44 44 44 43 42 42 41 41 42 42 42 42 41 40 39 39 40 41 41 43 43 41 40 39 37 36 37 38 39 39 38 38 38 39 39 39 38 38 37 37
44 42 42 40 36 35 36 35 31 31 32 32 32 33 34 38 41 42 43 47 48 47 45 43 42 40 36 34 34 33 33 37 41 44 45 45 44 43 40 40 43 47 47 44 45 45 44 43 42 41 41 42 43 43 44 43 42 42 42 42 42 42 43 42 42 42 41 39 37 35 35 36 37 38 39 39 39 39 39 40 40 39 39 38 38
43 41 40 39 36 34 34 33 31 30 31 31 30 31 33 36 39 42 43 45 46 47 46 45 43 42 39 37 36 36 35 35 37 40 43 44 44 41 38 39 43 47 46 43 42 43 43 42 42 41 40 41 43 44 44 43 42 43 44 44 44 44 43 41 39 39 39 38 36 36 36 36 37 38 39 39 39 39 40 41 41 41 40 40 40
42 40 39 38 36 33 33 33 30 30 30 30 29 30 33 36 39 42 43 44 45 45 43 42 41 42 41 39 38 37 36 36 36 37 40 43 43 43 42 42 43 45 46 43 42 42 42 41 42 42 41 42 44 43 43 42 43 44 45 45 44 44 41 38 36 37 37 37 38 37 36 36 37 38 38 39 39 40 40 41 41 41 41 41 42
43 40 38 37 35 32 33 33 30 29 29 29 29 31 34 38 40 41 41 41 41 41 39 37 37 40 41 41 40 40 38 37 36 36 38 39 39 41 45 45 44 44 44 43 43 44 44 42 42 43 43 44 44 43 43 42 43 44 44 43 43 42 40 36 35 37 38 39 40 39 38 37 37 38 39 40 40 41 41 41 42 42 43 43 44
43 41 38 37 35 31 31 33 30 27 28 28 29 33 35 37 38 37 37 38 38 38 37 35 35 39 42 41 41 42 40 39 38 37 37 36 36 39 43 45 45 46 45 45 46 46 46 45 45 46 46 46 46 45 44 44 43 44 44 42 41 41 39 37 37 39 41 41 41 40 39 38 38 39 40 41 41 42 42 42 43 44 45 45 46
44 42 39 38 36 31 30 33 31 27 27 29 31 34 35 35 35 35 36 35 35 34 34 34 34 37 41 42 41 42 43 43 42 40 39 38 40 42 44 44 45 46 47 48 49 48 48 48 48 48 49 49 48 46 45 45 45 45 45 43 42 42 40 40 42 43 43 42 41 40 41 40 40 40 41 41 42 43 43 44 45 46 47 48 49
45 42 39 37 36 32 30 32 31 27 27 30 34 36 36 35 35 36 36 34 33 32 33 34 35 37 40 43 43 42 43 46 45 43 42 44 46 48 48 47 47 48 49 50 50 50 50 50 51 51 50 51 51 49 48 48 47 48 47 45 44 43 43 45 47 46 44 43 41 41 41 41 41 41 42 43 43 44 44 45 46 47 49 50 51
47 43 39 37 36 33 30 32 31 27 26 31 37 37 37 37 36 37 36 35 34 34 33 35 36 37 40 43 44 43 44 46 46 45 45 46 48 50 51 50 50 50 50 51 52 52 53 53 53 53 52 53 53 52 51 50 50 49 48 46 45 44 45 47 48 47 45 44 43 42 42 42 42 43 43 44 45 45 46 47 48 49 50 51 52
48 44 39 36 35 33 32 32 32 29 27 32 39 40 39 40 38 38 38 37 37 37 35 35 35 36 38 42 44 44 44 46 47 45 45 46 48 50 51 51 51 51 50 51 52 54 55 55 55 55 55 55 55 54 53 53 51 50 48 47 46 46 47 48 49 48 47 45 44 44 43 43 43 44 44 46 46 47 48 48 49 50 51 52 53
49 46 40 36 35 34 34 33 33 31 28 32 41 43 42 42 40 39 40 39 39 38 35 35 36 35 36 39 42 43 43 46 47 45 43 45 48 49 50 50 51 51 51 52 53 54 55 56 56 55 55 55 55 55 54 53 52 50 49 48 47 47 48 49 50 49 47 46 46 46 45 45 45 45 46 47 48 49 50 51 51 52 53 54 55
49 47 41 37 35 34 36 36 35 33 30 32 41 46 45 43 41 39 39 39 39 37 35 35 35 35 36 38 41 42 41 42 45 46 45 46 47 48 49 50 50 50 51 52 53 54 55 55 55 55 55 55 55 55 54 53 52 51 50 49 48 49 50 51 51 49 48 48 49 48 48 47 47 48 49 50 51 52 53 53 53 53 54 55 56
49 48 43 38 35 35 37 38 36 35 33 32 39 47 48 44 41 38 37 36 35 36 36 37 36 36 36 39 42 44 43 41 43 46 47 47 49 49 49 49 50 50 50 51 52 53 54 55 55 55 56 56 55 55 55 54 52 52 51 50 50 51 53 53 52 50 50 51 51 51 50 50 50 51 52 53 54 55 55 55 55 55 56 56 56
49 48 44 39 36 35 37 41 39 37 36 34 37 46 50 48 43 39 36 36 36 37 38 40 40 39 38 39 42 45 46 46 47 48 48 48 49 50 52 52 52 53 53 53 55 57 58 58 58 58 58 57 57 57 56 55 54 54 54 53 52 53 55 54 53 53 54 54 54 53 53 53 54 55 56 57 58 58 57 58 57 57 57 56 56
51 49 45 41 36 35 37 42 42 39 39 37 37 43 50 52 48 42 38 38 39 39 40 40 42 43 43 42 44 47 49 50 52 52 52 51 51 51 52 52 52 53 54 56 58 60 61 61 60 60 60 60 60 59 57 57 57 57 57 55 55 55 56 56 56 57 58 57 57 56 56 57 57 58 59 60 60 60 60 60 59 59 58 57 57
52 49 47 42 37 35 36 42 45 42 41 40 39 41 48 53 52 47 41 40 41 43 44 44 44 46 46 45 46 49 50 51 54 55 55 55 54 54 54 54 54 55 56 59 60 61 62 62 62 61 62 61 61 61 60 59 60 59 58 57 57 57 58 59 60 61 61 60 60 59 59 60 61 61 62 62 62 62 61 61 61 61 60 60 59
53 51 48 44 39 35 35 40 47 46 43 42 41 41 45 50 52 51 46 42 42 45 48 49 48 47 47 49 50 51 50 51 54 56 56 55 56 56 57 57 57 58 59 60 61 62 63 64 63 62 63 63 62 62 61 60 60 60 59 59 60 61 62 63 63 63 63 63 62 62 63 64 64 64 64 64 64 63 63 62 63 63 63 63 63
53 51 49 46 42 37 34 38 46 49 46 44 44 43 44 47 49 50 49 45 44 46 49 51 50 49 50 51 53 53 52 52 54 56 56 56 55 55 56 56 56 58 59 61 62 63 64 66 65 63 63 63 63 63 62 61 60 60 61 63 64 65 66 66 65 65 65 65 65 65 65 66 66 67 67 67 67 66 66 66 66 67 67 67 67
52 51 50 48 45 41 36 35 43 51 50 47 46 46 46 47 48 49 50 48 46 48 51 52 52 53 53 53 53 54 54 52 52 53 53 54 53 54 55 55 55 56 59 61 63 63 64 66 66 63 63 63 64 65 65 63 62 62 64 67 68 68 68 67 66 66 67 67 67 67 67 68 69 69 69 70 70 70 70 70 71 71 72 71 71
52 51 50 48 47 45 40 35 38 48 53 51 49 48 48 49 49 50 50 50 50 51 53 54 55 56 56 56 55 55 55 53 51 50 51 52 54 54 54 53 53 54 58 62 63 63 64 65 65 65 65 66 66 66 66 66 66 68 69 71 70 69 68 67 67 68 70 70 69 69 69 70 70 71 71 72 72 72 73 75 76 76 76 76 76
52 51 50 48 47 47 45 39 36 43 53 55 52 51 51 51 52 52 52 52 53 55 56 56 57 58 59 59 57 55 55 54 51 50 52 53 53 52 51 52 53 55 59 62 62 63 64 65 67 69 70 70 68 67 68 69 69 69 70 70 70 69 68 68 68 69 71 72 72 72 72 72 73 73 74 74 75 76 78 80 80 80 80 80 80
53 52 51 50 48 47 48 45 40 39 48 56 56 54 53 53 54 54 54 54 55 58 59 59 59 59 60 61 60 57 57 55 51 51 53 53 51 50 50 51 53 55 57 59 60 62 64 65 67 70 71 70 68 66 66 66 65 64 65 67 68 69 70 69 69 71 73 74 75 75 75 75 75 76 76 78 80 82 84 85 85 84 85 85 84
53 54 53 52 50 49 49 49 46 41 44 52 58 58 56 55 56 56 57 57 57 59 61 62 62 61 61 61 60 59 59 58 55 55 56 56 54 53 53 54 56 57 59 60 61 63 66 67 68 69 70 69 66 64 63 63 63 64 66 68 70 71 71 70 70 73 75 76 77 77 77 77 77 78 81 83 85 87 88 88 88 88 88 88 87
54 54 54 53 52 51 50 50 49 47 44 48 55 60 60 58 58 58 58 58 58 59 61 63 63 63 63 63 62 60 59 59 58 60 62 62 62 60 60 61 61 62 63 64 65 66 67 69 69 69 70 69 67 65 65 64 65 67 69 71 72 72 72 71 72 75 76 78 79 79 79 80 82 84 87 89 90 91 91 91 91 91 91 90 88
56 55 55 55 54 53 52 51 51 51 49 47 51 58 62 62 61 60 60 60 60 59 60 62 64 64 64 65 65 64 63 62 61 62 63 65 66 66 67 67 67 67 67 68 69 69 69 69 70 71 71 71 70 69 68 69 70 71 73 74 74 75 75 76 77 79 81 82 82 83 84 86 88 90 91 92 94 94 94 94 94 93 92 90 89
58 57 56 56 56 55 55 54 53 53 52 51 50 54 60 64 65 64 63 62 62 61 60 61 63 65 65 66 67 67 67 67 66 65 65 66 67 69 69 70 70 71 71 71 71 71 71 71 72 73 74 74 74 74 73 74 74 76 76 77 78 79 80 81 83 84 85 86 86 88 90 92 93 94 95 96 97 97 97 97 96 94 93 92 91
60 59 58 58 57 57 57 56 55 55 55 55 53 53 57 62 66 68 67 66 65 65 64 63 64 65 67 68 69 70 70 71 71 70 69 70 70 71 73 74 74 74 75 74 74 75 75 76 76 76 77 77 78 78 78 78 79 79 80 81 82 83 84 85 86 87 88 89 91 93 95 96 97 98 99 99 99 99 99 98 97 95 94 93 93
61 61 61 60 59 59 58 58 57 57 57 58 57 55 55 59 64 69 71 71 69 68 68 67 67 68 69 70 71 72 73 74 75 76 76 76 75 75 76 77 78 78 79 79 79 79 79 79 80 80 80 81 81 82 82 83 83 84 85 86 87 88 88 89 90 91 92 94 96 98 99 100 101 101 101 101 100 100 99 98 97 96 95 96 96
62 62 62 62 62 61 60 60 59 59 59 60 61 59 57 58 61 66 71 74 74 73 72 70 69 70 72 73 73 73 75 76 77 78 79 81 81 81 81 82 82 82 82 82 83 83 83 83 83 83 83 84 84 85 86 86 87 88 89 90 91 91 92 93 94 95 97 99 100 102 102 103 102 102 102 101 101 100 99 98 97 97 98 99 100
61 62 62 63 63 63 62 62 62 61 61 62 63 62 60 59 60 64 69 74 77 78 77 76 73 72 73 76 77 77 77 77 78 79 80 82 83 84 85 85 86 86 86 86 86 86 86 86 87 87 87 87 88 88 89 90 91 92 93 93 94 95 96 97 98 100 101 102 103 103 103 103 102 101 101 101 100 99 99 99 99 100 102 104 106
60 61 62 63 63 64 64 64 63 63 62 62 63 64 63 62 61 63 66 71 76 79 81 81 79 77 76 77 80 82 82 81 80 80 81 82 84 85 86 87 87 87 88 88 88 88 89 89 89 90 90 91 91 92 93 94 94 95 96 96 97 98 99 101 102 103 103 103 103 102 102 101 101 100 100 100 100 100 101 102 103 105 107 109 110
59 60 61 61 62 63 63 64 63 63 62 62 62 63 64 64 64 64 65 68 72 77 81 83 84 83 82 80 81 83 85 86 85 84 83 84 85 86 87 88 88 89 89 88 89 89 90 90 91 91 92 92 93 94 95 95 96 97 98 99 100 101 102 103 103 102 101 101 100 100 99 99 100 100 101 102 103 104 106 107 109 110 111 112 114
58 59 60 60 61 62 62 63 63 63 63 63 63 63 64 65 65 66 66 68 71 74 78 82 85 87 87 86 85 84 86 88 89 89 88 87 88 89 90 90 91 91 91 91 91 90 91 91 91 92 92 93 94 95 95 96 97 97 98 98 98 98 99 99 98 98 98 98 99 99 100 101 103 104 106 107 108 109 110 111 112 113 114 115 115
57 58 58 59 59 60 61 61 61 61 62 62 63 63 64 66 67 67 68 70 71 73 76 80 84 87 89 90 90 89 88 89 90 92 92 92 91 91 92 93 94 94 94 94 94 93 93 93 93 94 95 95 96 97 97 98 98 98 97 97 96 97 97 98 98 99 100 101 103 104 105 107 108 108 109 110 111 112 112 113 114 115 115 116 116
54 55 56 57 57 58 59 59 59 58 58 59 59 60 61 62 64 66 67 69 71 73 75 78 82 85 88 90 92 93 93 92 92 93 94 95 95 94 93 93 94 95 96 96 96 97 97 97 98 98 98 98 99 99 100 100 100 100 100 100 101 101 102 103 104 105 106 107 108 108 109 109 110 110 111 112 113 113 114 114 115 115 116 118 119
48 49 50 51 52 54 55 56 57 57 57 57 57 57 58 58 59 61 63 65 67 69 72 75 79 82 86 89 91 93 95 96 95 95 96 96 97 97 97 96 95 95 95 96 97 98 100 101 101 102 102 102 102 102 103 103 103 103 103 103 104 105 105 106 107 108 109 109 110 110 110 111 112 113 113 113 114 114 114 115 116 118 120 122 125
42 43 44 45 46 47 49 50 52 53 55 56 58 58 59 59 58 59 60 62 63 65 67 70 74 78 82 86 89 91 94 96 97 98 98 98 99 100 100 100 100 99 98 97 97 98 99 100 101 102 103 104 104 105 106 106 106 106 107 107 107 107 108 108 109 110 110 110 111 111 112 112 113 113 114 114 115 116 118 120 122 124 125 127 128
38 39 39 40 41 42 43 44 45 47 49 51 54 56 58 59 60 60 60 61 62 63 64 66 70 73 78 82 86 89 91 93 95 97 99 100 101 101 102 103 103 103 103 102 102 102 102 102 102 103 103 104 104 105 106 106 107 107 108 108 108 109 109 110 110 111 111 112 112 113 113 114 115 116 118 119 121 122 124 125 126 127 128 129 129
37 37 38 38 38 39 39 40 41 42 43 45 47 50 53 56 58 60 61 61 62 63 64 65 67 69 73 77 81 85 88 91 93 95 96 98 100 102 103 104 104 105 106 106 107 107 107 107 107 107 107 107 107 108 108 108 109 109 110 110 110 111 112 112 113 113 114 115 116 117 118 120 121 122 123 124 125 126 127 127 128 128 128 129 129
32 33 34 35 36 37 38 38 39 40 40 42 43 45 47 50 53 55 58 59 61 63 64 66 67 68 70 72 75 79 84 88 92 94 95 97 98 99 100 102 103 104 106 107 108 109 109 110 110 111 111 111 112 112 113 113 114 114 115 115 116 116 117 118 119 119 120 121 122 122 123 124 125 126 126 127 127 127 128 128 128 128 128 128 128
30 30 31 31 32 34 35 36 37 38 39 40 41 42 44 46 48 50 52 55 57 59 61 64 66 68 70 71 73 75 78 82 86 91 94 96 98 99 100 101 101 102 103 105 106 107 109 110 111 112 113 113 114 115 115 116 117 117 118 119 119 120 121 122 122 123 123 124 125 125 126 126 126 127 127 127 128 128 127 127 127 127 127 126 126
28 29 30 31 31 31 32 33 34 36 37 39 40 41 42 43 45 46 48 50 52 54 57 59 62 64 67 70 72 74 76 78 81 84 87 91 94 97 100 101 102 103 103 104 105 106 106 108 109 110 111 112 113 114 115 116 117 118 119 120 121 121 122 123 123 124 124 125 125 125 126 126 126 126 126 126 126 126 126 125 125 125 125 124 124
26 26 27 28 29 30 31 32 33 34 35 36 38 39 41 42 44 45 46 47 49 51 53 55 57 59 62 65 68 71 74 76 78 81 83 85 88 90 93 96 99 101 103 104 106 107 107 108 109 109 110 111 112 113 114 115 116 117 118 118 119 120 121 121 122 122 123 123 123 123 124 124 124 124 124 124 124 124 124 123 123 123 123 122 122
28 27 26 26 26 27 28 30 31 32 34 35 36 37 39 40 42 44 45 46 48 49 51 52 54 56 58 60 63 65 68 71 74 77 79 82 84 86 89 91 93 95 97 100 102 104 105 107 108 109 110 111 112 112 113 114 115 115 116 117 117 118 119 119 119 120 120 121 121 121 122 122 122 122 122 122 122 122 122 121 121 120 119 118 116
29 29 29 28 28 27 27 27 28 29 31 32 34 35 37 39 40 42 44 45 47 48 50 52 53 54 56 57 59 61 63 66 68 71 73 76 79 82 84 87 89 91 93 95 97 99 100 102 104 105 106 107 108 109 110 111 112 113 114 114 115 116 116 117 117 118 118 118 119 119 119 120 120 120 120 120 120 119 118 117 116 114 113 111 109
27 28 28 29 29 29 29 28 28 28 28 29 31 32 34 36 38 40 42 43 45 47 48 50 52 53 55 56 58 59 61 62 64 66 68 71 73 75 78 80 83 85 87 88 90 93 95 97 98 100 101 103 104 105 107 108 109 110 111 112 113 113 114 115 115 116 116 116 117 117 117 117 117 116 116 115 114 113 112 111 109 108 106 105 103
25 25 26 27 27 28 29 29 29 30 30 30 30 31 31 32 34 36 38 40 42 44 46 48 49 51 53 55 56 58 59 61 62 64 65 67 69 71 73 75 77 79 80 82 84 85 87 89 91 93 94 96 97 99 100 102 103 104 106 107 108 109 110 110 111 111 111 112 112 112 112 111 111 110 110 109 108 107 106 105 103 102 100 98 96
24 25 25 25 25 26 26 27 28 29 30 30 31 32 32 32 33 34 35 36 38 40 43 45 46 48 50 52 53 55 57 59 61 62 64 65 66 68 69 70 72 74 75 77 78 80 81 83 85 86 87 89 90 92 93 94 96 97 99 100 101 102 103 104 105 105 106 106 106 106 106 106 105 105 104 103 102 101 99 98 97 95 94 92 90
26 26 26 25 25 25 25 26 26 27 28 29 30 31 32 33 34 34 35 35 36 37 39 40 42 43 45 47 49 51 53 56 57 59 61 62 64 65 67 68 70 71 72 73 74 75 76 78 79 81 82 83 84 86 87 88 89 90 92 93 94 95 96 97 97 98 99 99 99 99 99 98 98 97 97 96 95 94 93 92 91 89 88 87 86
Wind_Direction
287 287 288 290 291 289 287 283 277 271 266 260 252 244 242 241 238 234 234 238 241 242 241 237 234 234 233 231 228 221 217 216 219 223 230 237 239 240 240 242 246 249 249 248 250 254 258 261 263 265 266 268 268 267 267 270 275 280 284 286 287 287 289 290 290 288 287 286 285 285 284 283 283 284 285 286 286 286 289 292 294 293 289 286 287
289 289 290 292 293 293 289 282 274 268 263 259 254 246 240 237 235 232 232 237 239 238 239 237 234 235 234 230 228 225 220 219 222 226 231 239 241 241 241 243 245 247 248 249 250 253 256 260 263 265 266 268 267 266 268 274 279 282 284 285 285 286 289 291 290 289 287 288 288 287 286 285 284 283 284 285 286 286 287 290 292 291 289 286 285
291 292 293 294 295 293 287 277 270 266 262 258 253 247 239 233 230 230 232 237 236 233 234 235 234 235 235 232 229 227 225 224 226 229 233 239 241 239 240 244 246 247 248 250 250 252 254 259 264 266 266 268 269 268 272 277 280 281 283 284 284 287 291 292 289 287 287 289 290 289 288 287 286 285 285 285 286 285 286 289 291 291 290 288 285
293 294 295 295 296 292 281 271 266 263 262 258 251 243 236 228 224 225 228 232 230 227 228 231 232 234 236 235 232 232 232 230 231 231 233 237 238 237 240 244 244 247 250 250 250 252 255 258 262 265 266 269 270 271 273 276 279 280 282 283 284 287 291 291 288 285 286 288 288 288 288 288 287 286 285 284 284 284 285 288 290 291 291 290 287
295 296 296 295 295 289 275 264 261 260 260 257 248 238 229 223 220 219 221 224 224 223 225 227 230 234 235 237 235 235 236 236 235 234 234 236 234 233 239 242 241 244 249 252 253 255 257 261 263 265 267 269 271 272 272 275 278 280 282 282 283 288 291 290 287 285 285 285 285 286 287 287 286 286 285 283 283 283 284 286 288 289 289 289 288
295 296 296 294 293 286 270 258 256 257 258 254 244 231 222 217 216 216 218 219 220 222 223 224 229 234 235 236 236 236 237 237 236 236 236 235 234 233 237 239 239 244 250 254 257 258 260 263 264 266 268 269 270 271 271 274 276 278 281 281 283 288 290 288 288 287 285 284 283 285 287 287 285 285 285 284 282 281 282 284 286 287 288 288 288
296 297 297 294 291 283 265 254 252 253 255 251 237 225 218 214 213 214 215 216 218 220 219 219 226 232 232 233 235 236 237 236 236 237 236 236 238 239 240 240 241 246 252 255 257 258 261 264 265 266 268 269 269 269 270 272 275 278 280 280 283 286 286 286 288 286 283 283 285 287 288 286 285 285 285 285 283 282 283 284 285 286 288 288 289
296 297 297 294 290 280 261 251 249 250 251 246 231 219 216 215 213 212 212 213 215 215 214 216 225 231 230 230 233 236 237 235 235 236 235 235 239 242 243 244 246 249 253 255 256 259 262 263 265 267 269 269 268 268 269 272 274 277 278 278 281 283 282 283 286 286 285 286 288 288 287 285 284 284 284 285 285 285 286 286 286 287 288 288 290
295 296 297 293 289 280 259 246 246 248 247 239 225 216 214 213 212 209 209 210 211 214 215 217 224 230 228 227 231 234 235 235 234 234 234 234 236 241 244 246 249 252 254 256 257 259 261 263 265 267 267 268 268 269 270 272 273 274 274 275 278 280 279 281 284 285 286 288 289 289 287 285 283 282 283 284 285 286 286 286 287 287 287 288 289
294 295 295 292 287 278 258 243 242 245 243 232 220 213 211 211 211 208 207 208 210 214 216 218 223 228 227 226 229 234 236 237 237 235 236 236 238 242 245 248 251 254 255 256 258 259 260 262 264 265 266 267 269 270 270 270 272 272 273 274 276 277 279 281 284 285 286 287 289 289 287 285 282 281 282 283 284 285 285 285 286 286 287 288 288
293 294 294 291 285 274 256 241 237 240 240 227 216 211 210 211 212 210 208 209 213 215 216 218 223 229 229 227 229 233 236 239 240 239 238 239 241 244 247 249 252 254 255 257 258 259 260 262 263 264 265 267 268 269 269 270 270 270 271 273 274 276 278 281 284 285 286 288 289 289 287 284 282 282 282 283 284 284 285 286 286 287 287 288 289
292 292 292 289 283 270 252 239 233 235 236 225 214 210 212 213 213 211 209 211 215 217 218 221 224 229 231 230 231 233 235 237 240 241 240 241 243 245 247 250 252 253 255 257 258 259 260 261 262 263 264 265 266 267 268 269 269 269 270 271 273 275 277 279 281 282 284 288 290 290 288 285 283 282 282 282 284 285 286 287 288 289 289 289 290
290 290 290 287 281 267 250 237 232 232 234 225 216 212 213 214 213 211 210 213 217 219 221 223 223 225 230 232 233 234 235 236 240 243 242 242 243 246 247 249 251 253 255 256 257 258 259 259 260 261 262 264 265 265 266 268 268 269 270 272 273 274 275 276 276 278 283 288 290 290 289 286 284 284 284 284 286 286 288 288 289 290 290 291 291
288 288 287 284 280 268 249 236 231 230 232 227 219 214 213 212 211 210 211 214 217 219 221 222 221 222 228 233 234 233 233 235 239 241 241 242 243 245 247 249 251 253 254 255 256 257 257 258 259 261 262 263 264 265 266 267 268 270 271 272 273 273 273 273 274 278 284 288 289 290 289 287 286 286 286 287 287 287 288 289 290 291 291 291 290
285 285 286 283 279 269 250 236 231 229 231 229 222 216 214 212 211 210 211 214 217 219 220 221 220 222 227 233 237 237 236 236 239 240 241 243 245 247 249 250 252 253 254 255 256 256 257 258 260 261 262 263 264 265 266 268 270 271 271 271 272 273 273 274 276 280 284 287 288 289 288 287 287 287 287 287 288 288 289 289 290 290 290 290 290
283 283 284 282 279 272 254 238 231 229 229 229 224 218 216 214 212 212 213 215 218 221 224 225 225 226 229 233 238 240 241 241 243 245 247 249 250 251 253 254 255 256 256 257 257 258 259 260 261 262 262 263 264 266 268 270 270 270 271 273 274 274 276 277 279 281 283 286 288 288 287 287 287 286 287 288 288 289 289 290 290 290 290 291 290
282 281 282 280 278 274 258 240 232 229 229 229 226 219 217 216 215 215 217 218 219 221 225 228 229 230 232 235 239 241 243 244 247 249 251 253 254 253 254 254 255 256 258 258 258 259 261 261 262 262 263 265 266 268 269 270 271 272 273 275 275 276 278 279 281 282 283 286 288 288 287 286 286 286 287 288 289 290 291 291 292 292 292 292 291
281 279 279 278 276 275 263 244 233 230 229 229 227 222 218 218 218 217 218 221 223 223 224 225 227 228 229 232 237 240 241 243 246 249 250 252 252 252 252 254 255 256 258 258 259 259 261 261 262 264 265 266 267 268 269 270 272 274 275 276 276 277 279 280 281 282 283 285 286 287 286 286 286 286 287 289 290 291 292 293 293 293 293 293 293
279 278 277 277 275 274 267 248 235 231 229 228 227 224 220 219 219 219 219 222 226 227 226 225 225 226 228 230 234 237 238 240 242 244 246 248 249 251 253 254 256 257 258 259 259 260 261 262 263 265 266 267 268 269 271 272 274 275 275 276 276 277 278 279 281 282 282 283 285 286 286 286 286 287 289 291 292 293 294 294 294 294 294 294 294
277 275 275 275 274 272 268 254 239 232 230 228 227 225 222 220 219 219 219 221 225 228 229 229 228 227 227 230 233 236 237 239 240 241 243 246 249 252 254 255 256 258 259 259 260 261 262 264 265 265 266 267 268 269 271 273 274 275 275 276 276 277 278 279 280 281 281 283 285 286 286 287 289 290 292 293 294 295 295 295 295 295 295 295 295
273 272 271 272 272 271 269 259 244 234 230 228 227 225 223 221 220 219 219 220 223 225 229 231 231 230 228 229 232 234 235 238 242 244 248 252 255 258 259 260 260 260 260 260 261 262 263 265 267 267 267 268 270 272 274 275 274 273 273 274 275 276 278 279 280 281 283 285 287 288 288 289 290 291 292 293 294 295 296 296 296 296 296 296 295
270 268 267 268 269 270 269 263 250 238 232 229 227 225 224 222 220 220 221 222 222 224 227 230 232 232 231 231 232 234 237 240 245 250 253 255 257 258 259 260 260 259 259 260 261 263 265 266 267 267 268 269 271 273 275 275 275 274 275 276 277 278 279 281 283 285 287 288 288 288 289 289 289 290 291 292 293 294 295 295 296 296 296 296 296
268 266 264 263 264 266 267 265 256 243 235 230 227 225 225 223 221 220 221 222 223 224 226 229 231 232 233 233 234 236 239 242 245 249 252 253 254 255 257 258 258 259 260 262 263 265 266 267 268 269 271 272 274 275 276 277 278 278 279 279 281 282 284 285 286 286 286 287 287 287 287 288 288 289 289 290 291 292 293 294 295 295 296 296 296
268 264 262 261 259 261 263 264 261 250 239 233 228 225 224 224 223 221 221 221 222 224 226 228 230 231 233 234 235 236 239 240 240 243 247 249 251 252 254 256 257 258 260 262 263 264 265 267 269 271 274 276 276 277 277 278 278 278 278 279 280 282 284 284 284 283 283 284 285 285 286 286 287 288 289 289 290 292 293 294 295 296 297 297 297
267 264 261 260 258 257 259 261 261 256 246 237 231 227 224 224 224 223 222 221 221 223 226 229 231 232 233 233 234 236 238 238 238 238 241 244 246 248 250 253 254 255 256 258 260 262 263 265 267 270 273 274 275 275 276 276 275 275 275 276 278 280 281 282 282 281 281 282 283 284 285 286 287 288 288 289 291 292 293 294 295 297 297 298 298
266 263 260 259 257 257 256 257 259 258 252 243 235 230 226 224 223 224 224 224 223 224 226 229 232 234 235 235 234 234 235 237 237 237 238 240 243 245 247 250 252 253 254 256 258 260 262 264 265 267 270 272 272 273 272 272 271 272 273 275 276 278 279 279 278 278 279 280 281 283 284 285 286 287 288 289 291 292 293 294 295 297 297 297 298
267 263 260 257 256 256 256 256 256 256 255 249 241 234 229 226 224 224 225 225 225 225 227 229 232 234 235 236 236 235 235 235 237 238 238 239 241 243 246 248 250 252 253 255 257 259 261 263 264 265 266 268 269 269 269 268 269 270 271 273 274 275 275 275 275 276 277 279 280 282 283 285 286 287 288 289 291 292 293 295 296 296 297 297 297
267 264 261 258 256 255 255 256 255 255 254 252 246 239 233 229 226 225 225 226 227 227 227 228 231 233 235 236 236 237 237 236 237 239 239 239 240 242 244 245 247 249 251 253 255 257 258 260 261 262 263 265 266 266 267 267 268 269 271 272 272 273 274 274 275 276 278 279 281 282 284 285 286 287 288 289 290 292 293 294 296 296 297 297 297
266 264 262 259 256 255 255 255 255 255 254 253 250 244 238 233 229 227 227 227 228 229 228 227 228 231 234 236 236 237 238 238 238 239 240 241 242 243 243 244 245 247 249 251 252 254 256 257 258 259 260 262 263 265 266 266 267 269 270 271 272 273 274 275 276 278 279 280 282 283 284 285 286 287 288 289 290 292 293 294 295 296 296 296 296
265 264 262 261 259 256 255 255 255 255 254 253 251 248 243 237 233 231 229 229 229 230 231 230 228 228 231 234 236 237 238 239 239 240 241 242 244 245 245 246 247 248 249 250 252 253 255 256 257 258 259 260 261 263 264 265 266 267 269 270 271 272 274 275 276 277 278 280 281 283 284 285 286 287 289 290 291 292 293 294 295 295 295 295 294
265 263 263 262 261 259 258 257 257 256 255 254 253 251 248 243 237 234 232 231 230 231 231 232 231 229 229 231 233 236 237 239 240 241 242 243 244 246 247 248 249 249 250 251 253 254 255 256 257 258 259 259 260 261 262 263 265 266 268 269 270 271 272 273 274 276 277 279 281 282 283 285 286 287 289 290 291 292 292 293 293 293 293 293 294
265 264 263 263 263 262 261 260 259 258 258 256 255 253 251 248 244 239 236 234 233 232 232 233 233 232 230 230 231 234 236 238 239 241 242 244 245 246 248 249 250 251 252 252 253 254 255 256 257 258 258 259 260 261 262 263 264 266 267 268 269 270 271 273 274 276 278 279 281 282 283 284 286 287 288 289 290 290 291 291 291 291 292 292 293
265 264 263 263 263 263 263 262 261 260 259 257 256 255 253 251 249 245 241 238 236 234 234 234 234 234 233 232 232 233 234 237 238 240 241 243 244 246 247 248 250 251 252 253 254 255 256 257 258 258 259 260 261 262 263 264 265 266 267 268 270 271 272 274 275 277 278 279 280 281 282 283 285 286 287 287 288 288 289 289 290 290 291 292 293
266 265 264 264 263 263 262 262 262 261 260 258 257 255 255 254 252 249 246 243 240 238 236 235 235 236 236 235 234 234 234 236 238 240 241 242 243 245 246 248 249 250 252 254 255 256 257 258 258 259 260 261 262 263 264 266 267 268 269 270 271 272 273 274 275 276 277 278 279 280 281 282 283 284 285 286 286 287 288 288 289 290 291 292 293
267 266 265 264 264 263 263 262 262 261 261 260 258 256 255 254 253 251 249 246 244 242 239 238 237 237 237 237 237 237 236 236 237 239 241 242 243 245 246 248 249 250 251 253 254 255 257 258 259 259 260 261 263 264 265 266 268 269 270 271 272 273 274 275 276 276 277 278 279 280 280 281 282 283 284 285 286 287 288 288 289 290 291 292 292
269 268 267 266 265 264 263 262 262 261 260 260 259 257 255 254 253 252 250 248 247 245 243 240 239 238 238 238 239 239 238 238 238 238 240 242 243 244 246 248 249 250 251 252 253 255 256 257 258 259 260 261 262 263 264 265 266 268 269 270 271 272 273 274 275 276 277 277 278 279 280 281 282 283 284 285 286 287 287 288 289 290 290 291 292
268 267 266 265 264 264 263 262 261 260 260 259 258 256 254 253 252 251 250 249 247 246 245 243 241 239 239 239 240 240 240 240 240 239 240 241 242 244 245 247 248 250 251 253 254 255 255 256 258 259 260 261 262 263 264 265 266 267 268 268 269 270 272 273 274 275 276 277 278 279 280 281 282 283 283 284 285 286 287 287 288 289 290 290 291
269 268 266 265 263 262 261 261 260 259 258 257 256 255 254 252 251 250 249 248 248 246 245 244 243 241 240 240 240 241 241 242 242 242 242 242 242 243 244 246 247 248 250 251 253 254 255 256 257 258 259 260 261 263 264 265 266 267 268 268 269 270 271 272 273 274 275 276 277 278 279 280 281 282 283 284 284 285 286 286 287 288 289 290 291
270 269 268 267 265 263 261 260 259 258 257 256 256 255 254 253 252 250 249 249 248 248 246 245 244 243 242 242 241 242 242 243 244 244 244 244 244 244 245 246 247 248 249 250 251 252 254 255 256 257 258 260 261 262 263 264 265 266 267 268 269 269 270 271 272 273 274 276 277 278 278 279 280 281 282 282 283 284 285 286 287 288 289 290 291
275 272 270 268 267 265 264 262 261 259 258 256 255 255 255 254 254 252 251 250 249 249 248 247 246 245 244 244 243 243 243 244 244 245 246 246 247 247 247 247 248 249 250 250 251 252 253 254 255 256 257 258 259 260 261 263 264 265 266 266 267 268 269 270 271 272 273 274 275 276 277 278 279 280 281 281 282 284 285 286 287 288 289 289 290
277 277 275 273 271 269 267 265 263 262 260 259 257 256 255 255 255 254 253 252 250 249 249 248 248 247 246 246 245 245 245 245 246 246 246 247 248 248 249 249 250 250 251 251 252 253 254 255 255 256 257 258 259 260 261 261 262 263 264 265 266 267 268 269 270 271 272 273 274 275 276 277 278 279 280 281 282 283 284 285 286 287 288 289 290
278 277 276 275 275 274 272 270 269 267 264 263 261 259 258 257 256 256 255 254 253 252 251 250 249 249 248 247 247 246 246 247 247 248 248 249 249 249 250 251 251 252 252 253 254 254 255 256 257 258 258 259 260 261 262 262 263 264 265 266 267 268 268 269 270 271 272 273 274 275 276 278 279 280 281 282 283 283 284 285 286 287 288 289 290
289 285 282 278 276 274 274 273 272 271 270 268 266 264 262 261 259 258 258 257 256 255 253 252 251 251 250 250 249 248 247 247 248 248 249 250 251 252 252 252 253 253 253 254 255 255 256 257 258 258 259 260 261 262 263 264 265 265 266 267 268 269 270 271 272 273 274 275 275 276 277 278 279 280 281 282 283 284 285 286 287 288 288 289 290
293 292 290 288 285 281 278 276 274 273 272 271 270 269 267 266 264 262 261 260 259 258 257 256 254 253 253 252 251 251 250 250 249 249 250 250 251 252 253 254 254 255 255 256 256 257 257 258 259 259 260 261 262 262 263 264 265 266 267 268 269 270 270 271 272 273 274 275 276 277 278 279 279 280 281 282 283 284 285 286 287 287 288 289 290
299 296 293 291 290 288 286 283 281 278 276 274 273 272 271 270 268 267 266 264 262 261 260 259 258 257 256 255 254 254 253 253 252 252 252 252 252 252 252 253 254 255 256 256 257 258 259 259 260 261 261 262 263 263 264 265 265 266 267 268 269 270 271 272 272 273 274 275 276 277 278 279 280 280 281 282 283 284 285 285 286 287 288 289 290
310 307 303 299 295 292 289 287 285 283 281 279 277 275 273 272 271 270 269 268 267 266 264 263 262 261 259 259 258 257 256 256 255 255 254 254 254 254 254 254 254 254 255 255 256 257 258 258 259 260 261 262 263 263 264 265 266 266 267 268 269 270 270 271 272 273 274 275 275 276 277 278 279 280 280 281 282 283 284 285 286 287 288 290 291
315 314 312 310 307 303 298 294 290 287 284 282 280 279 277 276 274 273 272 271 270 269 268 267 267 265 264 263 262 261 260 259 258 258 257 257 257 257 256 256 257 257 257 257 257 257 258 258 259 259 260 261 261 262 263 264 265 265 266 267 268 269 270 270 271 272 273 274 274 275 276 277 278 279 280 281 282 283 284 285 287 288 289 290 291
315 315 314 314 312 311 308 305 301 296 292 288 284 282 279 278 276 275 274 273 272 271 270 270 269 269 268 267 266 265 264 263 262 261 261 260 259 259 259 259 259 259 259 259 259 259 259 260 260 260 261 261 262 262 263 264 264 265 266 266 267 268 269 270 271 271 272 273 274 275 276 277 278 279 280 281 282 284 285 286 287 288 289 290 291
315 315 314 313 313 312 311 310 308 306 303 299 295 291 287 283 280 277 276 275 274 273 273 272 271 271 270 270 270 269 268 267 267 266 265 264 263 262 262 261 261 261 261 261 261 261 261 261 262 262 262 263 263 263 264 264 265 265 266 267 267 268 269 270 271 272 272 273 274 275 276 277 278 279 281 282 283 284 285 286 287 288 289 290 291
318 317 315 314 313 312 312 311 310 309 307 305 303 300 297 294 290 286 282 279 277 275 274 273 273 273 273 272 272 272 271 270 270 269 268 268 267 267 266 265 264 264 263 263 263 263 263 263 263 264 264 264 264 265 265 265 266 266 267 268 268 269 270 270 271 272 273 274 275 276 277 277 278 279 280 281 282 283 285 286 287 287 288 289 290
321 319 318 316 315 314 314 313 312 310 309 307 306 304 303 301 299 296 293 290 287 284 281 278 276 275 274 273 273 273 273 273 272 272 271 270 270 269 269 268 268 267 267 266 266 265 265 265 265 265 265 265 265 265 266 266 266 267 267 268 269 269 270 271 271 272 273 274 275 275 276 277 278 279 280 281 282 283 284 285 286 287 288 289 290
Height
10618 10616 10614 10612 10610 10608 10606 10604 10604 10603 10602 10603 10605 10607 10611 10615 10620 10626 10630 10633 10636 10638 10641 10643 10646 10649 10652 10654 10657 10660 10664 10666 10668 10669 10671 10673 10674 10675 10676 10678 10679 10679 10680 10681 10684 10686 10686 10684 10683 10683 10683 10682 10681 10680 10680 10679 10678 10677 10676 10674 10674 10673 10673 10672 10669 10667 10666 10666 10665 10663 10662 10661 10660 10659 10658 10657 10656 10655 10654 10653 10652 10651 10650 10649 10648
10613 10611 10609 10607 10605 10602 10599 10598 10598 10598 10597 10598 10599 10602 10605 10609 10614 10619 10624 10627 10631 10634 10637 10639 10642 10644 10647 10650 10653 10656 10659 10661 10663 10665 10667 10668 10669 10670 10671 10672 10672 10671 10673 10676 10679 10680 10679 10678 10678 10679 10679 10678 10677 10676 10675 10675 10674 10673 10672 10671 10670 10670 10670 10669 10665 10661 10661 10661 10660 10659 10658 10657 10656 10655 10654 10653 10652 10651 10650 10649 10648 10647 10646 10644 10643
10607 10606 10604 10602 10600 10598 10595 10593 10593 10593 10592 10593 10595 10596 10599 10603 10608 10613 10618 10621 10624 10628 10632 10635 10638 10640 10643 10646 10649 10652 10654 10657 10658 10660 10663 10664 10664 10665 10666 10666 10665 10665 10667 10670 10672 10673 10673 10673 10673 10674 10674 10673 10673 10672 10671 10671 10670 10669 10668 10667 10667 10666 10666 10665 10661 10657 10656 10656 10655 10655 10654 10653 10652 10651 10650 10649 10647 10647 10646 10645 10644 10642 10641 10639 10638
10602 10601 10599 10596 10595 10593 10591 10589 10589 10589 10589 10589 10590 10591 10593 10597 10602 10607 10612 10615 10618 10623 10627 10631 10635 10637 10639 10641 10644 10647 10650 10652 10654 10656 10658 10659 10660 10661 10661 10661 10660 10659 10662 10665 10666 10667 10668 10669 10669 10670 10669 10668 10668 10667 10667 10667 10667 10666 10665 10664 10663 10662 10662 10661 10658 10654 10652 10652 10651 10650 10650 10649 10647 10646 10645 10644 10643 10642 10641 10640 10639 10637 10636 10634 10633
10597 10596 10594 10592 10590 10589 10587 10586 10585 10585 10586 10585 10586 10587 10589 10593 10597 10601 10605 10608 10612 10617 10622 10628 10632 10634 10636 10638 10640 10643 10645 10647 10649 10651 10652 10653 10654 10655 10656 10656 10656 10654 10656 10659 10660 10662 10663 10665 10665 10665 10665 10664 10663 10662 10662 10662 10662 10662 10661 10660 10659 10658 10657 10656 10654 10651 10649 10648 10647 10646 10645 10644 10643 10642 10641 10639 10638 10637 10636 10635 10633 10632 10631 10630 10628
10592 10591 10590 10588 10586 10584 10583 10582 10582 10582 10582 10582 10583 10585 10586 10589 10592 10595 10599 10603 10608 10613 10619 10625 10630 10631 10632 10634 10637 10639 10640 10641 10643 10645 10647 10648 10649 10649 10649 10650 10651 10651 10651 10653 10655 10656 10657 10659 10660 10660 10660 10659 10658 10658 10658 10659 10659 10658 10657 10656 10655 10654 10653 10651 10649 10647 10645 10643 10642 10642 10641 10640 10639 10637 10636 10634 10633 10632 10631 10630 10628 10627 10626 10625 10623
10588 10586 10585 10583 10582 10581 10579 10578 10579 10579 10579 10579 10581 10582 10584 10586 10589 10592 10596 10600 10604 10609 10616 10622 10626 10627 10628 10630 10632 10634 10634 10636 10638 10640 10642 10643 10644 10644 10643 10644 10646 10647 10647 10648 10649 10650 10652 10654 10655 10654 10654 10653 10653 10653 10654 10655 10655 10655 10653 10652 10651 10650 10648 10646 10644 10641 10640 10639 10638 10637 10636 10635 10634 10633 10631 10629 10628 10627 10626 10625 10623 10622 10621 10619 10618
10583 10581 10580 10578 10577 10577 10576 10575 10575 10576 10576 10577 10578 10580 10583 10585 10587 10590 10593 10596 10601 10606 10612 10617 10620 10622 10623 10625 10627 10628 10629 10631 10632 10634 10636 10638 10639 10638 10638 10640 10641 10642 10643 10643 10644 10645 10647 10648 10650 10649 10648 10647 10647 10648 10650 10651 10652 10652 10649 10648 10647 10645 10642 10641 10639 10635 10634 10633 10633 10632 10631 10630 10629 10627 10626 10624 10623 10622 10621 10620 10618 10617 10616 10614 10613
10578 10577 10575 10573 10572 10572 10572 10572 10572 10572 10573 10574 10575 10578 10580 10583 10586 10588 10591 10594 10598 10602 10607 10611 10614 10616 10618 10620 10622 10623 10623 10624 10625 10628 10631 10632 10633 10632 10632 10634 10636 10636 10637 10638 10639 10640 10642 10643 10644 10643 10641 10640 10641 10643 10645 10646 10647 10647 10645 10644 10643 10640 10637 10636 10633 10631 10629 10628 10627 10627 10626 10625 10623 10622 10621 10619 10618 10617 10616 10614 10613 10612 10610 10609 10607
10573 10572 10571 10569 10567 10567 10568 10568 10568 10569 10569 10570 10572 10575 10578 10580 10583 10585 10588 10591 10595 10599 10603 10606 10608 10609 10612 10615 10617 10617 10617 10617 10619 10623 10624 10625 10626 10626 10627 10629 10631 10631 10632 10632 10633 10635 10636 10638 10638 10636 10635 10635 10635 10637 10639 10640 10641 10640 10639 10639 10638 10635 10632 10629 10627 10626 10624 10623 10622 10621 10620 10619 10617 10616 10615 10614 10613 10611 10610 10609 10607 10606 10605 10604 10602
10568 10567 10566 10564 10562 10562 10563 10564 10564 10565 10565 10567 10569 10572 10574 10577 10580 10582 10585 10589 10592 10595 10598 10601 10603 10605 10607 10609 10611 10612 10612 10611 10613 10616 10618 10619 10620 10621 10622 10624 10625 10625 10626 10627 10628 10628 10629 10630 10631 10630 10630 10630 10630 10631 10632 10634 10635 10634 10633 10634 10632 10630 10627 10624 10621 10619 10618 10617 10616 10616 10615 10613 10611 10610 10610 10608 10607 10605 10604 10603 10602 10601 10599 10598 10596
10562 10562 10561 10560 10558 10557 10558 10559 10559 10560 10561 10563 10565 10568 10571 10573 10576 10579 10582 10585 10588 10590 10594 10596 10599 10601 10602 10604 10606 10607 10607 10605 10606 10609 10612 10614 10615 10615 10617 10618 10619 10619 10620 10621 10621 10622 10622 10623 10624 10624 10624 10624 10624 10624 10625 10626 10627 10627 10628 10628 10627 10625 10623 10620 10617 10614 10612 10611 10611 10609 10609 10607 10606 10605 10603 10602 10601 10599 10598 10597 10596 10594 10593 10592 10590
10556 10556 10556 10555 10553 10552 10553 10554 10555 10555 10557 10558 10560 10564 10566 10569 10572 10575 10578 10581 10584 10587 10590 10592 10594 10596 10597 10598 10600 10602 10602 10601 10600 10603 10606 10608 10608 10609 10611 10612 10613 10613 10614 10614 10614 10615 10615 10615 10616 10617 10617 10617 10617 10617 10618 10619 10619 10620 10620 10621 10620 10619 10618 10616 10613 10610 10608 10607 10605 10604 10603 10601 10600 10599 10597 10596 10595 10593 10592 10591 10589 10588 10586 10585 10583
10551 10550 10550 10549 10548 10547 10548 10549 10550 10551 10552 10554 10555 10558 10562 10565 10568 10571 10574 10578 10581 10584 10586 10587 10588 10590 10591 10593 10594 10595 10596 10597 10597 10598 10600 10601 10602 10603 10605 10606 10607 10608 10608 10608 10608 10608 10608 10608 10609 10609 10609 10609 10610 10610 10611 10611 10612 10612 10613 10613 10613 10612 10611 10609 10607 10606 10603 10601 10599 10598 10596 10595 10594 10592 10591 10589 10588 10586 10585 10584 10583 10581 10579 10578 10576
10545 10544 10544 10544 10543 10542 10543 10544 10545 10546 10547 10549 10551 10553 10557 10560 10564 10567 10571 10574 10577 10579 10580 10580 10582 10584 10586 10587 10588 10589 10591 10593 10592 10593 10594 10595 10596 10597 10599 10600 10601 10602 10602 10602 10601 10600 10600 10601 10601 10601 10601 10602 10603 10603 10603 10604 10605 10605 10605 10605 10605 10604 10602 10601 10600 10599 10597 10595 10593 10592 10590 10589 10587 10586 10584 10582 10581 10580 10579 10577 10576 10575 10572 10571 10569
10539 10539 10539 10539 10538 10537 10537 10539 10541 10541 10542 10544 10546 10548 10551 10555 10559 10563 10567 10570 10572 10574 10574 10576 10578 10580 10582 10583 10583 10583 10585 10587 10586 10587 10588 10589 10590 10592 10593 10594 10595 10595 10595 10595 10594 10592 10592 10593 10594 10593 10594 10595 10596 10596 10597 10597 10598 10597 10596 10597 10598 10596 10594 10593 10593 10592 10590 10588 10587 10586 10584 10583 10581 10579 10577 10575 10574 10573 10571 10570 10569 10567 10565 10564 10562
10533 10533 10533 10533 10533 10532 10532 10534 10536 10537 10538 10539 10541 10543 10546 10549 10554 10558 10562 10565 10568 10569 10571 10572 10574 10575 10577 10578 10578 10577 10579 10580 10581 10581 10582 10583 10584 10586 10588 10589 10589 10589 10589 10588 10586 10585 10584 10585 10585 10585 10586 10587 10588 10590 10590 10590 10589 10589 10589 10589 10589 10588 10586 10585 10585 10583 10582 10581 10580 10579 10577 10575 10573 10571 10570 10568 10566 10564 10563 10562 10560 10559 10558 10556 10554
10527 10527 10527 10528 10528 10527 10527 10528 10530 10532 10533 10535 10536 10539 10541 10544 10548 10553 10557 10560 10562 10563 10564 10565 10567 10568 10571 10573 10572 10571 10572 10575 10575 10576 10577 10578 10579 10580 10582 10583 10583 10583 10581 10579 10578 10578 10576 10576 10577 10578 10578 10580 10581 10581 10582 10582 10581 10581 10581 10580 10580 10579 10578 10577 10576 10575 10574 10573 10572 10571 10569 10567 10565 10563 10562 10560 10558 10556 10555 10553 10551 10549 10548 10547 10546
10520 10520 10520 10521 10522 10522 10521 10522 10524 10527 10528 10530 10532 10534 10536 10538 10542 10546 10551 10554 10556 10557 10557 10558 10560 10563 10565 10566 10564 10565 10567 10569 10569 10570 10571 10572 10573 10574 10575 10577 10577 10575 10572 10571 10570 10570 10568 10568 10570 10571 10570 10572 10573 10572 10573 10574 10573 10573 10572 10571 10570 10570 10569 10569 10568 10567 10566 10565 10563 10562 10560 10558 10556 10555 10553 10551 10550 10547 10546 10544 10542 10540 10539 10538 10537
10514 10513 10513 10514 10515 10516 10516 10516 10518 10521 10523 10525 10527 10529 10530 10533 10536 10540 10544 10548 10550 10551 10551 10552 10555 10557 10557 10558 10558 10559 10561 10561 10561 10563 10565 10566 10567 10568 10568 10570 10569 10566 10564 10563 10562 10562 10561 10560 10561 10564 10563 10563 10564 10564 10566 10567 10566 10565 10564 10562 10561 10561 10560 10560 10560 10558 10557 10556 10555 10553 10551 10549 10546 10544 10542 10540 10539 10537 10535 10534 10532 10531 10529 10528 10527
10508 10507 10507 10507 10508 10509 10510 10511 10512 10514 10517 10519 10521 10523 10525 10527 10530 10533 10537 10541 10544 10545 10545 10546 10549 10549 10549 10550 10551 10552 10553 10554 10555 10558 10560 10560 10561 10561 10561 10562 10562 10559 10556 10554 10553 10554 10555 10553 10553 10555 10556 10555 10556 10556 10557 10559 10559 10558 10556 10554 10553 10552 10552 10551 10551 10549 10547 10546 10545 10543 10541 10539 10536 10534 10532 10530 10528 10527 10525 10523 10522 10520 10519 10517 10516
10501 10501 10501 10501 10501 10501 10503 10506 10507 10508 10510 10513 10515 10517 10519 10521 10524 10527 10530 10534 10537 10539 10539 10539 10541 10541 10542 10543 10544 10544 10546 10549 10552 10553 10554 10554 10554 10554 10553 10553 10554 10551 10548 10546 10546 10547 10547 10546 10545 10546 10546 10547 10549 10549 10549 10549 10549 10548 10546 10545 10545 10544 10543 10543 10541 10539 10536 10535 10534 10532 10530 10529 10527 10525 10523 10521 10520 10518 10516 10514 10513 10511 10510 10508 10506
10494 10494 10494 10495 10495 10495 10496 10498 10500 10502 10503 10505 10509 10511 10513 10515 10518 10520 10523 10526 10529 10532 10533 10533 10533 10534 10535 10535 10537 10539 10541 10544 10547 10547 10547 10548 10548 10547 10546 10545 10545 10543 10540 10539 10540 10540 10538 10538 10537 10537 10537 10539 10541 10542 10541 10539 10537 10536 10535 10534 10533 10533 10532 10532 10531 10529 10526 10525 10523 10523 10521 10520 10518 10517 10515 10513 10512 10510 10508 10506 10504 10502 10501 10499 10496
10487 10487 10487 10488 10489 10489 10489 10491 10493 10495 10496 10498 10501 10504 10506 10508 10511 10513 10516 10518 10521 10523 10525 10525 10526 10527 10528 10529 10531 10533 10534 10536 10539 10540 10541 10541 10541 10540 10539 10538 10538 10537 10535 10533 10533 10532 10531 10530 10530 10528 10528 10529 10531 10532 10531 10529 10528 10526 10525 10524 10523 10522 10521 10522 10522 10520 10517 10515 10514 10513 10512 10511 10509 10508 10506 10504 10503 10501 10499 10497 10495 10493 10491 10489 10486
10479 10479 10480 10481 10482 10482 10483 10484 10486 10487 10489 10490 10493 10496 10499 10501 10503 10506 10508 10510 10513 10515 10516 10517 10518 10519 10520 10522 10524 10526 10527 10528 10530 10532 10532 10532 10532 10532 10531 10530 10530 10530 10529 10527 10525 10524 10523 10523 10523 10522 10520 10521 10522 10522 10522 10520 10519 10518 10517 10516 10514 10513 10513 10513 10512 10510 10507 10506 10504 10503 10502 10501 10500 10498 10497 10495 10493 10491 10490 10488 10485 10483 10481 10478 10475
10472 10472 10472 10473 10474 10475 10476 10478 10479 10480 10481 10483 10485 10488 10491 10493 10495 10497 10499 10502 10504 10506 10507 10509 10511 10512 10513 10514 10516 10518 10519 10519 10520 10521 10522 10522 10523 10523 10523 10522 10522 10522 10521 10520 10519 10518 10516 10515 10516 10515 10514 10513 10514 10515 10514 10513 10512 10511 10510 10508 10507 10506 10506 10505 10503 10500 10498 10496 10495 10494 10493 10492 10490 10489 10487 10485 10483 10481 10480 10478 10476 10473 10470 10467 10464
10463 10464 10465 10466 10467 10467 10469 10470 10471 10472 10474 10475 10477 10479 10482 10485 10487 10489 10491 10493 10495 10497 10499 10500 10502 10503 10505 10506 10508 10509 10510 10510 10510 10510 10511 10512 10512 10513 10513 10513 10513 10513 10513 10513 10512 10511 10511 10509 10509 10508 10507 10506 10506 10506 10506 10506 10505 10503 10502 10501 10500 10498 10497 10495 10493 10491 10489 10487 10486 10485 10484 10482 10481 10479 10477 10475 10473 10471 10469 10467 10465 10462 10459 10456 10453
10454 10455 10456 10458 10459 10460 10460 10462 10463 10464 10466 10467 10468 10470 10473 10476 10479 10480 10482 10484 10485 10487 10489 10491 10493 10494 10496 10497 10499 10500 10501 10502 10502 10502 10502 10502 10502 10503 10503 10503 10503 10503 10504 10504 10504 10504 10503 10502 10501 10500 10499 10498 10497 10497 10497 10496 10496 10494 10493 10491 10490 10488 10486 10484 10483 10481 10479 10478 10477 10475 10474 10472 10471 10469 10468 10466 10463 10461 10458 10456 10453 10451 10448 10444 10441
10444 10445 10446 10448 10450 10452 10452 10453 10455 10456 10457 10458 10460 10462 10464 10467 10469 10471 10473 10474 10476 10477 10479 10481 10483 10485 10487 10488 10489 10490 10492 10492 10493 10493 10493 10492 10492 10492 10492 10493 10493 10494 10494 10495 10495 10495 10494 10493 10493 10492 10491 10490 10489 10488 10487 10487 10486 10485 10483 10481 10479 10477 10475 10474 10472 10470 10468 10467 10465 10464 10463 10461 10460 10458 10456 10454 10452 10450 10447 10444 10441 10439 10436 10433 10430
10435 10435 10436 10437 10440 10442 10444 10445 10446 10447 10448 10449 10450 10453 10455 10457 10459 10461 10462 10464 10466 10468 10469 10471 10473 10475 10477 10478 10479 10480 10481 10482 10483 10483 10483 10483 10482 10482 10482 10483 10483 10484 10485 10485 10485 10485 10484 10484 10483 10483 10482 10482 10481 10480 10479 10478 10477 10476 10474 10472 10470 10468 10466 10465 10463 10461 10459 10457 10455 10454 10452 10450 10448 10446 10444 10442 10440 10437 10435 10432 10430 10427 10424 10421 10418
10426 10426 10427 10427 10429 10431 10434 10435 10437 10438 10439 10440 10441 10443 10445 10448 10450 10452 10452 10453 10455 10457 10459 10461 10462 10464 10467 10468 10469 10470 10471 10471 10472 10473 10473 10473 10472 10472 10472 10472 10472 10473 10474 10475 10475 10475 10474 10474 10473 10473 10473 10473 10472 10471 10470 10469 10468 10467 10465 10463 10461 10459 10457 10456 10454 10452 10450 10448 10446 10444 10442 10440 10438 10436 10433 10431 10428 10426 10423 10421 10418 10415 10413 10410 10407
10417 10418 10418 10418 10419 10420 10422 10424 10426 10428 10430 10430 10431 10433 10436 10438 10440 10442 10443 10443 10445 10447 10448 10450 10452 10453 10455 10457 10458 10460 10461 10461 10462 10463 10463 10463 10462 10462 10462 10462 10461 10462 10462 10463 10464 10464 10464 10463 10463 10463 10463 10463 10462 10461 10460 10459 10458 10457 10455 10454 10452 10450 10448 10446 10444 10442 10440 10438 10436 10434 10432 10430 10427 10425 10422 10420 10417 10415 10412 10410 10407 10404 10402 10399 10396
10407 10408 10409 10409 10410 10410 10411 10413 10415 10417 10419 10420 10421 10423 10425 10427 10430 10432 10433 10434 10435 10436 10437 10439 10441 10442 10444 10445 10447 10448 10450 10451 10452 10452 10453 10453 10452 10452 10451 10451 10451 10451 10451 10452 10453 10453 10453 10453 10453 10453 10453 10452 10452 10451 10450 10450 10448 10447 10445 10444 10443 10441 10439 10437 10435 10433 10430 10428 10426 10424 10421 10419 10417 10414 10412 10409 10407 10404 10402 10399 10397 10394 10391 10388 10385
10397 10397 10398 10399 10400 10400 10401 10402 10403 10404 10406 10409 10411 10412 10414 10416 10418 10421 10422 10424 10425 10426 10427 10428 10429 10431 10432 10434 10435 10436 10438 10439 10440 10441 10442 10442 10442 10441 10441 10440 10441 10441 10442 10442 10442 10442 10443 10443 10443 10443 10442 10442 10441 10441 10440 10439 10438 10436 10435 10433 10432 10430 10428 10426 10424 10422 10420 10417 10415 10413 10411 10408 10406 10403 10401 10399 10396 10394 10391 10389 10386 10383 10380 10376 10373
10387 10387 10388 10389 10389 10390 10390 10391 10392 10393 10394 10396 10399 10401 10403 10404 10406 10408 10411 10412 10413 10415 10416 10417 10418 10419 10420 10422 10423 10424 10426 10427 10428 10429 10430 10430 10430 10431 10431 10430 10430 10431 10432 10432 10432 10432 10432 10432 10432 10432 10432 10431 10430 10430 10429 10427 10426 10424 10423 10421 10419 10417 10415 10413 10411 10410 10408 10406 10404 10402 10400 10397 10395 10393 10391 10388 10385 10383 10380 10377 10374 10371 10367 10364 10361
10377 10377 10377 10378 10379 10379 10380 10380 10381 10382 10383 10384 10386 10388 10390 10392 10394 10396 10397 10399 10401 10402 10404 10405 10406 10407 10408 10409 10411 10412 10413 10414 10416 10417 10418 10418 10419 10420 10420 10419 10419 10420 10420 10421 10421 10421 10421 10421 10420 10419 10419 10419 10419 10418 10418 10416 10415 10414 10412 10411 10408 10406 10404 10401 10399 10397 10396 10394 10392 10390 10388 10386 10384 10382 10379 10377 10374 10371 10368 10365 10361 10358 10355 10351 10348
10368 10368 10368 10368 10368 10369 10369 10370 10371 10372 10373 10374 10375 10377 10378 10380 10381 10383 10384 10385 10387 10389 10391 10392 10394 10395 10396 10397 10398 10399 10400 10401 10403 10404 10405 10407 10408 10408 10408 10408 10408 10409 10409 10410 10410 10410 10410 10409 10408 10408 10407 10407 10406 10406 10405 10404 10404 10403 10402 10400 10399 10397 10394 10392 10389 10387 10385 10383 10381 10379 10377 10375 10373 10370 10368 10365 10362 10360 10357 10353 10350 10346 10343 10340 10336
10360 10360 10359 10359 10359 10360 10360 10360 10361 10362 10363 10364 10365 10366 10367 10368 10370 10371 10372 10373 10374 10376 10378 10379 10381 10382 10384 10384 10385 10387 10388 10389 10390 10392 10393 10394 10396 10397 10397 10397 10397 10397 10397 10398 10398 10398 10397 10397 10397 10396 10396 10396 10395 10394 10393 10392 10391 10391 10390 10388 10387 10385 10383 10381 10378 10376 10374 10372 10370 10368 10366 10364 10361 10359 10356 10354 10351 10348 10345 10341 10338 10334 10331 10328 10325
10353 10352 10351 10351 10351 10351 10351 10352 10352 10353 10353 10354 10355 10356 10357 10358 10359 10360 10361 10362 10363 10364 10365 10367 10368 10369 10371 10372 10373 10375 10376 10377 10378 10379 10380 10381 10383 10384 10384 10385 10385 10385 10385 10386 10386 10386 10385 10385 10385 10384 10384 10384 10384 10383 10382 10380 10379 10379 10377 10376 10375 10373 10371 10369 10367 10365 10363 10361 10359 10357 10354 10352 10349 10347 10344 10342 10339 10336 10333 10330 10326 10323 10319 10316 10312
10346 10345 10344 10344 10343 10343 10343 10343 10344 10344 10345 10345 10346 10346 10347 10348 10349 10350 10351 10352 10353 10353 10354 10355 10356 10357 10358 10359 10361 10362 10364 10364 10365 10366 10367 10368 10369 10370 10371 10372 10372 10373 10373 10374 10374 10373 10373 10373 10372 10372 10372 10372 10371 10371 10370 10369 10368 10367 10365 10364 10363 10361 10359 10357 10355 10353 10352 10350 10347 10345 10343 10340 10338 10335 10333 10330 10327 10324 10321 10318 10315 10311 10308 10304 10300
10339 10338 10337 10337 10336 10336 10335 10335 10336 10336 10336 10337 10337 10337 10337 10338 10338 10340 10341 10342 10342 10343 10344 10345 10345 10346 10346 10347 10349 10350 10351 10352 10353 10354 10355 10355 10356 10357 10358 10359 10359 10360 10360 10361 10361 10361 10361 10360 10360 10360 10359 10359 10359 10358 10357 10356 10355 10354 10353 10352 10350 10349 10347 10345 10343 10341 10339 10337 10335 10333 10331 10328 10326 10323 10321 10318 10315 10312 10309 10306 10303 10300 10296 10292 10288
10333 10332 10331 10330 10329 10329 10328 10328 10328 10328 10328 10328 10328 10329 10328 10329 10329 10330 10330 10331 10332 10333 10334 10334 10335 10335 10335 10336 10337 10338 10339 10340 10341 10341 10342 10343 10343 10344 10345 10346 10346 10347 10347 10348 10348 10348 10348 10347 10347 10347 10347 10346 10346 10345 10345 10344 10343 10342 10341 10339 10338 10336 10334 10332 10330 10328 10327 10325 10323 10321 10318 10316 10313 10311 10308 10306 10303 10300 10297 10294 10291 10288 10284 10280 10276
10327 10326 10325 10324 10324 10323 10322 10321 10321 10320 10320 10320 10320 10320 10320 10320 10320 10321 10321 10321 10322 10322 10323 10324 10324 10324 10324 10325 10326 10327 10327 10328 10328 10329 10330 10331 10331 10331 10332 10333 10333 10334 10334 10335 10335 10335 10335 10335 10334 10334 10334 10334 10333 10332 10332 10331 10329 10328 10327 10326 10324 10323 10321 10319 10317 10315 10313 10311 10309 10307 10305 10303 10301 10298 10296 10293 10290 10287 10284 10281 10278 10275 10271 10267 10263
10323 10321 10320 10319 10318 10317 10316 10315 10315 10314 10313 10313 10312 10312 10312 10311 10312 10312 10312 10312 10312 10312 10313 10313 10313 10314 10314 10314 10314 10315 10316 10316 10316 10316 10317 10318 10318 10318 10319 10319 10320 10321 10321 10322 10322 10322 10322 10321 10321 10321 10321 10321 10320 10320 10319 10318 10317 10315 10314 10313 10311 10310 10308 10306 10304 10302 10300 10298 10296 10294 10292 10290 10288 10285 10283 10280 10277 10274 10271 10268 10265 10262 10258 10254 10250
10318 10317 10316 10314 10313 10312 10311 10310 10309 10308 10307 10306 10305 10305 10304 10303 10303 10303 10303 10303 10303 10303 10303 10303 10303 10303 10303 10303 10303 10303 10304 10304 10305 10305 10305 10305 10306 10306 10305 10305 10306 10307 10307 10307 10308 10308 10308 10308 10308 10308 10308 10307 10307 10306 10306 10305 10304 10303 10301 10300 10298 10297 10295 10293 10291 10289 10287 10285 10283 10281 10279 10277 10275 10272 10269 10267 10264 10261 10259 10256 10253 10249 10245 10242 10238
10314 10312 10311 10310 10308 10307 10306 10304 10303 10302 10301 10300 10299 10298 10297 10296 10295 10295 10294 10294 10293 10293 10293 10293 10293 10293 10292 10292 10292 10292 10292 10292 10292 10293 10293 10293 10293 10293 10292 10292 10291 10292 10293 10293 10293 10293 10293 10293 10293 10293 10293 10293 10293 10292 10291 10291 10290 10289 10287 10286 10284 10283 10281 10280 10278 10276 10274 10272 10270 10268 10266 10264 10261 10259 10257 10254 10251 10249 10246 10243 10240 10237 10233 10229 10226
10311 10309 10307 10305 10303 10302 10301 10300 10298 10297 10295 10294 10293 10292 10291 10290 10289 10288 10287 10286 10285 10284 10283 10283 10282 10282 10282 10282 10281 10281 10281 10281 10280 10280 10281 10281 10280 10280 10279 10279 10278 10278 10279 10279 10279 10279 10279 10279 10279 10278 10278 10278 10278 10277 10277 10276 10275 10274 10273 10271 10270 10268 10267 10265 10264 10262 10260 10259 10257 10255 10253 10251 10249 10246 10244 10242 10239 10237 10234 10231 10228 10225 10222 10218 10214
10308 10306 10304 10302 10300 10298 10296 10294 10293 10291 10290 10289 10287 10286 10285 10284 10282 10281 10280 10278 10277 10276 10275 10274 10273 10272 10271 10271 10270 10270 10269 10269 10269 10268 10268 10268 10267 10267 10266 10266 10265 10265 10265 10266 10266 10265 10265 10265 10265 10264 10264 10264 10263 10263 10262 10262 10261 10260 10259 10257 10256 10254 10253 10251 10250 10248 10247 10245 10244 10242 10240 10238 10236 10234 10232 10229 10227 10224 10222 10219 10216 10214 10210 10207 10203
10306 10304 10302 10299 10297 10294 10292 10290 10288 10286 10285 10283 10281 10280 10279 10277 10276 10275 10273 10272 10270 10268 10267 10266 10265 10264 10262 10261 10260 10259 10258 10257 10256 10256 10255 10255 10254 10254 10254 10253 10253 10252 10252 10252 10252 10252 10251 10250 10250 10250 10250 10249 10249 10249 10248 10247 10246 10245 10244 10243 10242 10240 10239 10238 10236 10235 10233 10232 10230 10229 10227 10225 10223 10221 10219 10217 10214 10212 10210 10207 10205 10202 10199 10196 10193
10303 10301 10299 10296 10294 10292 10289 10287 10285 10283 10281 10278 10276 10274 10272 10271 10269 10268 10266 10265 10263 10261 10260 10258 10257 10256 10255 10253 10251 10249 10248 10246 10245 10244 10243 10242 10242 10241 10240 10240 10239 10239 10238 10238 10238 10238 10237 10236 10236 10235 10235 10235 10234 10234 10233 10232 10232 10231 10230 10229 10227 10226 10225 10224 10223 10221 10220 10218 10217 10216 10214 10212 10211 10209 10207 10204 10202 10200 10198 10196 10194 10191 10188 10185 10182
10299 10297 10295 10293 10291 10288 10286 10284 10281 10279 10277 10275 10272 10270 10268 10265 10263 10261 10259 10258 10256 10254 10252 10250 10249 10248 10247 10245 10243 10241 10239 10237 10235 10233 10231 10231 10230 10229 10228 10227 10226 10225 10225 10224 10224 10224 10224 10223 10222 10221 10221 10221 10220 10219 10219 10218 10218 10217 10216 10215 10214 10213 10212 10211 10210 10208 10207 10206 10204 10203 10202 10200 10198 10197 10195 10193 10191 10189 10187 10185 10182 10180 10177 10175 10172